G4CVN Weather Reports


Display with metric or nautical units.
time (UTC)temp
F
wind
direction
speed
MPH
gust
MPH
rain 1hr
in
rain 24hr
in
rain mn
in
humidity
%
barometer
mb
20260504215515 55 0.0 0.0 0.00 0.00 0.00 88 1018.2
20260504214515 55 0.0 0.0 0.00 0.00 0.00 87 1018.2
20260504213515 55 0.0 0.0 0.00 0.00 0.00 87 1018.2
20260504212515 55 0.0 1.0 0.00 0.00 0.00 86 1018.2
20260504211535 55 0.0 0.0 0.00 0.00 0.00 86 1018.2
20260504210515 55 0.0 0.0 0.00 0.00 0.00 86 1018.3
20260504205535 56 0.0 0.0 0.00 0.00 0.00 85 1018.2
20260504204515 56 0.0 0.0 0.00 0.00 0.00 85 1018.2
20260504203515 56 0.0 0.0 0.00 0.00 0.00 84 1018.2
20260504202515 56 0.0 0.0 0.00 0.00 0.00 84 1018.2
20260504201535 56 0.0 0.0 0.00 0.00 0.00 83 1018.1
20260504200515 57 0.0 0.0 0.00 0.00 0.00 82 1018.0
20260504195515 57 0.0 0.0 0.00 0.00 0.00 81 1018.0
20260504194515 58 0.0 0.0 0.00 0.00 0.00 80 1017.8
20260504193515 58 0.0 0.0 0.00 0.00 0.00 80 1017.8
20260504192515 59 0.0 0.0 0.00 0.00 0.00 80 1017.7
20260504191515 59 0.0 0.0 0.00 0.00 0.00 79 1017.6
20260504190555 60 0.0 1.0 0.00 0.00 0.00 78 1017.6
20260504185515 60 0.0 1.0 0.00 0.00 0.00 77 1017.6
20260504184515 61 0.0 1.0 0.00 0.00 0.00 76 1017.6
20260504183515 61 0.0 1.0 0.00 0.00 0.00 76 1017.5
20260504182535 62 0.0 1.0 0.00 0.00 0.00 75 1017.4
20260504181515 62 0.0 1.0 0.00 0.00 0.00 74 1017.3
20260504180515 63 0.0 4.0 0.00 0.00 0.00 74 1017.3
20260504175515 63 0.0 1.0 0.00 0.00 0.00 73 1017.4
20260504174515 63 0.0 1.0 0.00 0.00 0.00 72 1017.3
20260504173515 63 338 1.0 4.0 0.00 0.00 0.00 72 1017.3
20260504172515 63 338 1.0 4.0 0.00 0.00 0.00 72 1017.3
20260504171515 64 0.0 1.0 0.00 0.00 0.00 71 1017.3
20260504170515 64 270 1.0 4.0 0.00 0.00 0.00 70 1017.2
20260504150515 67 270 1.0 4.0 0.00 0.00 0.00 67 1017.4
20260504140515 68 0.0 1.0 0.00 0.00 0.00 67 1017.7
20260504130535 69 248 1.0 3.0 0.00 0.00 0.00 64 1017.8
20260504110516 67 45 1.0 4.0 0.00 0.00 0.00 77 1018.0
20260504100535 61 0.0 1.0 0.00 0.00 0.00 85 1018.0
20260504081515 56 0.0 0.0 0.00 0.00 0.00 95 1017.8
20260504080536 55 0.0 0.0 0.00 0.00 0.00 95 1017.7
20260504050515 53 0.0 0.0 0.00 0.00 0.00 96 1016.3
20260504045515 53 0.0 1.0 0.00 0.00 0.00 96 1016.2
20260504044516 53 0.0 0.0 0.00 0.00 0.00 96 1016.2
20260504043515 53 0.0 1.0 0.00 0.00 0.00 96 1016.0
20260504042516 53 0.0 1.0 0.00 0.00 0.00 96 1016.0
20260504041516 53 0.0 1.0 0.00 0.00 0.00 95 1016.0
20260504040516 53 0.0 0.0 0.00 0.00 0.00 95 1016.0
20260504035535 53 0.0 1.0 0.00 0.00 0.00 95 1016.1
20260504034515 53 0.0 1.0 0.00 0.00 0.00 95 1016.1
20260504033516 53 0.0 0.0 0.00 0.00 0.00 95 1016.1
20260504032516 53 0.0 1.0 0.00 0.00 0.00 95 1016.1
20260504031535 53 0.0 1.0 0.00 0.00 0.00 95 1016.3
20260504030515 52 0.0 0.0 0.00 0.00 0.00 95 1016.1
20260504025516 52 0.0 1.0 0.00 0.00 0.00 95 1016.0
20260504024516 52 0.0 0.0 0.00 0.00 0.00 95 1016.0
20260504023516 52 0.0 1.0 0.00 0.00 0.00 95 1016.1
20260504022516 52 0.0 1.0 0.00 0.00 0.00 95 1016.1
20260504021535 52 0.0 1.0 0.00 0.00 0.00 95 1016.2
20260504020516 52 0.0 1.0 0.00 0.00 0.00 95 1016.0
20260504015536 52 0.0 2.0 0.00 0.00 0.00 95 1016.0
20260504014516 52 0.0 2.0 0.00 0.00 0.00 95 1016.0
20260504013536 52 0.0 2.0 0.00 0.00 0.00 95 1016.0
20260504012516 52 0.0 1.0 0.00 0.00 0.00 95 1016.0
20260504011515 52 0.0 1.0 0.00 0.00 0.00 95 1015.9
20260504010515 52 0.0 1.0 0.00 0.00 0.00 95 1016.0
20260504005516 52 0.0 1.0 0.00 0.00 0.00 95 1016.0
20260504004516 52 0.0 1.0 0.00 0.00 0.00 95 1015.9
20260504003516 52 203 1.0 2.0 0.00 0.00 0.00 95 1016.0
20260504002516 52 203 1.0 3.0 0.00 0.00 0.00 94 1015.9
20260504001515 53 203 1.0 2.0 0.00 0.00 0.00 94 1016.0
20260504000515 53 203 1.0 2.0 0.00 0.00 0.00 94 1015.9
20260503235516 53 203 1.0 3.0 0.00 0.00 0.00 94 1015.9
20260503234516 53 225 1.0 2.0 0.00 0.00 0.00 94 1015.9
20260503233516 53 225 1.0 2.0 0.00 0.00 0.00 94 1015.9
20260503232516 53 0.0 2.0 0.00 0.00 0.00 94 1015.9
20260503231516 53 0.0 2.0 0.00 0.00 0.00 94 1015.8
20260503230536 53 0.0 1.0 0.00 0.00 0.00 93 1015.8
20260503225516 53 0.0 2.0 0.00 0.00 0.00 93 1015.6
20260503224516 53 225 1.0 3.0 0.00 0.00 0.00 93 1015.6
20260503223516 53 0.0 0.0 0.00 0.00 0.00 92 1015.5
20260503222516 53 0.0 0.0 0.00 0.00 0.00 92 1015.5
20260503221515 53 0.0 0.0 0.00 0.00 0.00 91 1015.4
20260503220516 53 0.0 0.0 0.00 0.00 0.00 91 1015.4